COSMOS 830

Satellite information

Favourite Embed

Satellite Type and Status

PAYLOADIN ORBIT

Key statistics

Satellite COSMOS 830 at a glance.

Uptime

18084

Days in orbit

Revolutions

≈ 12.5

Per day

Orbit

LEO

Low Earth Orbit

Inclination

74.0

Latest

Satellite identification and parameters

Extended collection of information and parameters for COSMOS 830.

Object identification

Identified? True

Debris? False

Object name: COSMOS 830

International designator: 1976-054F

Object number (NORAD): 8894

Object ID (CCSDS): 8894

Country: COMMONWEALTH OF INDEPENDENT STATES (CIS)

Current information (Y/N): Y

RCS size: MEDIUM

Orbital parameters

Period: 115.546 minutes

Inclination: 74.0018 deg

SMA: 7858.324 km

Apoapsis: 1493.206 km

Periapsis: 1467.173 km

RAAN: 332.2517 deg

Eccentricy: 0.0016564

Argument of periapsis: 231.7386 deg

Mean anomaly: 156.582 deg

Mean motion: 12.46257655 rev/day

Mean motion (dot): -0.00000021 rev/day2

B* drag term: -0.000032380208 1/REarth

Two-line elements (TLE)

Creation date: Dec. 19, 2025, 2:08 a.m.

Reference frame: TEME

Reference center: EARTH

Epoch: Dec. 18, 2025, 11:02 p.m. UTC

TLE line 0: 0 COSMOS 830

TLE line 1: 1 08894U 76054F 25352.96013954 -.00000021 00000-0 -32380-4 0 9990

TLE line 2: 2 08894 74.0018 332.2517 0016564 231.7386 156.5820 12.46257655252421

Live tracking on map

Real-time ground track for satellite COSMOS 830.

In-orbit conjunctions

A list of the most updated potential collisions computed for object COSMOS 830.

Target Orbit TCA Probability of collision Miss distance Type
SL-14 R/B LEO 2025-10-31 05:08:32 0.0001271044 183.0 (m) ROCKET BODY

Associated space launch

Military communications satellites

COSMOS 830 was lifted into orbit during the mission ‘Kosmos-3M | Strela-1M 113-120’, on board a Kosmos-3M space rocket.

The launch took place on June 15, 1976, 1:19 p.m. from 132/2.

For more information about the launch, click the button.

Launch to space Kosmos-3M | Strela-1M 113-120
Kosmos-3M | Strela-1M 113-120

Agency: N/A

Status: Launch Successful

Launch date: June 15, 1976, 1:19 p.m. UTC

Rocket: Kosmos-3M

Launch pad: 132/2

Location: Plesetsk Cosmodrome, Russian Federation

...

Latest news about this satellite

There are no fresh news available about this satellite. Check back as we update our databases every day.


Newsletter sign-up

Weekly statistics, charts and insights to help you stay on top of the space industry.